Flag for Tanzania Weather past 2 weeks in Zanzibar City, Tanzania

Now
73 °F

Passing clouds.


Feels Like: 70 °F
Forecast: 76 / 82 °F
Wind: 7 mph from Southwest

Location: Mombasa Airport

Current Time: Aug 28, 2015 at 5:22:24 AM

Latest Report: Aug 28, 2015 at 5:00 AM


Visibility: N/A

Pressure: 30.01 "Hg

Humidity: 94%

Dew point: 72 °F

Location of Zanzibar CityLocation

Historic Weather in Zanzibar City — Graph

°F

Zanzibar City temperature yesterday

Maximum temperature yesterday: 84 °F (at 1:00 PM)
Minimum temperature yesterday: 70 °F (at 6:00 AM)
Average temperature yesterday: 77 °F

Past Weeks' High & Low Weather Summary

 TemperatureHumidityPressure
High86 °F (Aug 15, 2:00 PM)100% (Aug 15, 3:00 AM)30.12 "Hg (Aug 15, 3:00 AM)
Low70 °F (Aug 16, 7:00 AM)20% (Aug 22, 4:00 PM)29.92 "Hg (Aug 18, 4:00 PM)
Average77 °F80%30.04 "Hg
* Reported Aug 13 3:00 AM — Aug 28 3:00 AM, Zanzibar City, Weather by CustomWeather, © 2015

Note: Actual official high and low records may vary slightly from our data, if they occured in-between our weather recording intervals... More about our weather records

Advertising

Zanzibar City weather history for previous 24 hours

 ConditionsComfort  
Time TempWeatherWind HumidityBarometerVisibility
3:00 AM
Fri, Aug 28
73 °FPassing clouds.7 mph94%30.01 "HgN/A
2:00 AM72 °FLight rain. Partly cloudy.8 mph94%30.01 "HgN/A
12:00 AM73 °FPassing clouds.5 mph89%30.04 "HgN/A
11:00 PM
Thu, Aug 27
75 °FPassing clouds.3 mph89%30.04 "HgN/A
10:00 PM75 °FPassing clouds.3 mph89%30.04 "HgN/A
9:00 PM75 °FPassing clouds.5 mph89%30.04 "HgN/A
8:00 PM77 °FPassing clouds.5 mph83%30.04 "HgN/A
7:00 PM77 °FPassing clouds.5 mph83%30.01 "HgN/A
6:00 PM79 °FPassing clouds.7 mph74%30.01 "HgN/A
5:00 PM81 °FPassing clouds.6 mph66%29.98 "HgN/A
4:00 PM82 °FPassing clouds.9 mph62%29.98 "HgN/A
3:00 PM84 °FPassing clouds.10 mph58%30.01 "HgN/A
2:00 PM84 °FPassing clouds.9 mph58%30.04 "HgN/A
1:00 PM84 °FScattered clouds.10 mph58%30.07 "HgN/A
12:00 PM82 °FScattered clouds.9 mph62%30.09 "HgN/A
11:00 AM82 °FScattered clouds.8 mph62%30.09 "HgN/A
10:00 AM81 °FScattered clouds.8 mph66%30.09 "HgN/A
9:00 AM77 °FScattered clouds.7 mph83%30.09 "HgN/A
8:00 AM73 °FPartly sunny.3 mph89%30.09 "HgN/A
7:00 AM72 °FPartly sunny.3 mph94%30.07 "HgN/A
6:00 AM70 °FPassing clouds.No wind94%30.04 "HgN/A
Weather by CustomWeather, © 2015

See weather overviewHow to use our weather pages